Time,TemperatureF,DewpointF,PressureIn,WindDirection,WindDirectionDegrees,WindSpeedMPH,WindSpeedGustMPH,Humidity,HourlyPrecipIn,Conditions,Clouds,dailyrainin,SoftwareType,DateUTC
2013-05-23 00:02:00,46.2,44.3,29.86,East,89,0.0,0.0,93,0.00,,FEW,0.00,VWS V14.01,2013-05-23 07:02:00,
2013-05-23 00:07:00,46.2,44.3,29.86,East,89,0.0,0.0,93,0.00,,FEW,0.00,VWS V14.01,2013-05-23 07:07:00,
2013-05-23 00:12:00,46.2,44.3,29.86,East,89,0.0,0.0,93,0.00,,FEW,0.00,VWS V14.01,2013-05-23 07:12:00,
2013-05-23 00:17:00,46.2,44.6,29.86,East,89,0.0,0.0,94,0.00,,FEW,0.00,VWS V14.01,2013-05-23 07:17:00,
2013-05-23 00:22:00,46.2,44.6,29.86,SE,129,0.0,0.0,94,0.00,,FEW,0.00,VWS V14.01,2013-05-23 07:22:00,
2013-05-23 00:27:00,46.1,44.2,29.86,SE,129,0.0,0.0,93,0.00,,FEW,0.00,VWS V14.01,2013-05-23 07:27:00,
2013-05-23 00:32:00,46.0,44.4,29.86,SE,129,0.0,0.0,94,0.00,,FEW,0.00,VWS V14.01,2013-05-23 07:32:00,
2013-05-23 00:37:00,46.0,44.4,29.86,SE,129,0.0,0.0,94,0.00,,FEW,0.00,VWS V14.01,2013-05-23 07:37:00,
2013-05-23 00:42:00,46.0,44.4,29.86,SE,129,0.0,0.0,94,0.00,,FEW,0.00,VWS V14.01,2013-05-23 07:42:00,
2013-05-23 00:47:00,46.0,44.4,29.86,SE,129,0.0,0.0,94,0.00,,FEW,0.00,VWS V14.01,2013-05-23 07:47:00,
2013-05-23 00:53:00,46.0,44.4,29.86,SE,129,0.0,0.0,94,0.01,,FEW,0.01,VWS V14.01,2013-05-23 07:53:00,
2013-05-23 00:58:00,46.1,44.5,29.86,SE,129,0.0,0.0,94,0.01,,FEW,0.01,VWS V14.01,2013-05-23 07:58:00,
2013-05-23 01:03:00,46.1,44.5,29.86,SE,129,0.0,0.0,94,0.01,,FEW,0.01,VWS V14.01,2013-05-23 08:03:00,
2013-05-23 01:08:00,46.1,44.5,29.86,SE,129,0.0,0.0,94,0.01,,FEW,0.01,VWS V14.01,2013-05-23 08:08:00,
2013-05-23 01:13:00,46.2,44.6,29.86,SE,129,0.0,0.0,94,0.01,,FEW,0.01,VWS V14.01,2013-05-23 08:13:00,
2013-05-23 01:18:00,46.4,44.8,29.86,SE,129,0.0,0.0,94,0.01,,FEW,0.01,VWS V14.01,2013-05-23 08:18:00,
2013-05-23 01:23:00,46.4,44.8,29.86,SE,129,0.0,0.0,94,0.01,,FEW,0.01,VWS V14.01,2013-05-23 08:23:00,
2013-05-23 01:28:00,46.2,44.6,29.86,SE,129,0.0,0.0,94,0.02,,FEW,0.02,VWS V14.01,2013-05-23 08:28:00,
2013-05-23 01:33:00,46.2,44.6,29.86,SE,129,0.0,0.0,94,0.02,,FEW,0.02,VWS V14.01,2013-05-23 08:33:00,
2013-05-23 01:38:00,46.2,44.6,29.86,SE,129,0.0,0.0,94,0.02,,FEW,0.02,VWS V14.01,2013-05-23 08:38:00,
2013-05-23 01:43:00,46.2,44.6,29.86,SE,129,0.0,0.0,94,0.02,,FEW,0.02,VWS V14.01,2013-05-23 08:43:00,
2013-05-23 01:48:00,46.2,44.6,29.87,SE,129,0.0,0.0,94,0.02,,FEW,0.02,VWS V14.01,2013-05-23 08:48:00,
2013-05-23 01:53:00,46.2,44.6,29.87,SE,129,0.0,0.0,94,0.03,,FEW,0.03,VWS V14.01,2013-05-23 08:53:00,
2013-05-23 01:58:00,46.5,44.9,29.87,SE,129,0.0,0.0,94,0.03,,FEW,0.03,VWS V14.01,2013-05-23 08:58:00,
2013-05-23 02:03:00,46.4,44.8,29.87,SE,129,0.0,0.0,94,0.03,,FEW,0.04,VWS V14.01,2013-05-23 09:03:00,
2013-05-23 02:08:00,46.4,44.8,29.87,SE,129,0.0,0.0,94,0.04,,FEW,0.05,VWS V14.01,2013-05-23 09:08:00,
2013-05-23 02:13:00,46.5,45.2,29.87,SE,129,0.0,0.0,95,0.04,,FEW,0.05,VWS V14.01,2013-05-23 09:13:00,
2013-05-23 02:18:00,46.5,45.2,29.88,SE,129,0.0,0.0,95,0.05,,FEW,0.06,VWS V14.01,2013-05-23 09:18:00,
2013-05-23 02:23:00,46.7,45.3,29.88,SE,129,0.0,0.0,95,0.05,,FEW,0.06,VWS V14.01,2013-05-23 09:23:00,
2013-05-23 02:28:00,46.7,45.3,29.88,SE,129,0.0,0.0,95,0.05,,FEW,0.06,VWS V14.01,2013-05-23 09:28:00,
2013-05-23 02:33:00,46.5,45.2,29.88,SE,129,0.0,0.0,95,0.04,,FEW,0.06,VWS V14.01,2013-05-23 09:33:00,
2013-05-23 02:38:00,46.7,45.3,29.88,SE,129,0.0,0.0,95,0.05,,FEW,0.07,VWS V14.01,2013-05-23 09:38:00,
2013-05-23 02:43:00,46.7,45.3,29.88,SE,129,0.0,0.0,95,0.05,,FEW,0.07,VWS V14.01,2013-05-23 09:43:00,
2013-05-23 02:48:00,46.7,45.3,29.88,SE,129,0.0,0.0,95,0.05,,FEW,0.07,VWS V14.01,2013-05-23 09:48:00,
2013-05-23 02:53:00,46.7,45.3,29.88,SE,129,0.0,0.0,95,0.05,,FEW,0.07,VWS V14.01,2013-05-23 09:53:00,
2013-05-23 02:58:00,46.7,45.3,29.88,SE,129,0.0,0.0,95,0.05,,FEW,0.07,VWS V14.01,2013-05-23 09:58:00,
2013-05-23 03:03:00,46.8,45.5,29.88,SE,129,0.0,0.0,95,0.05,,FEW,0.08,VWS V14.01,2013-05-23 10:03:00,
2013-05-23 03:08:00,46.8,45.5,29.88,SE,129,0.0,0.0,95,0.05,,FEW,0.08,VWS V14.01,2013-05-23 10:08:00,
2013-05-23 03:13:00,46.8,45.5,29.88,SE,129,0.0,0.0,95,0.05,,FEW,0.08,VWS V14.01,2013-05-23 10:13:00,
2013-05-23 03:18:00,46.8,45.5,29.88,SE,129,0.0,0.0,95,0.06,,FEW,0.09,VWS V14.01,2013-05-23 10:18:00,
2013-05-23 03:23:00,46.8,45.5,29.88,SE,129,0.0,0.0,95,0.06,,FEW,0.09,VWS V14.01,2013-05-23 10:23:00,
2013-05-23 03:28:00,46.8,45.5,29.88,SE,129,0.0,0.0,95,0.06,,FEW,0.09,VWS V14.01,2013-05-23 10:28:00,
2013-05-23 03:33:00,46.8,45.5,29.88,SE,129,0.0,0.0,95,0.03,,FEW,0.09,VWS V14.01,2013-05-23 10:33:00,
2013-05-23 03:38:00,46.8,45.5,29.88,SE,129,0.0,0.0,95,0.03,,FEW,0.09,VWS V14.01,2013-05-23 10:38:00,
2013-05-23 03:43:00,46.8,45.5,29.88,SE,129,0.0,0.0,95,0.03,,FEW,0.09,VWS V14.01,2013-05-23 10:43:00,
2013-05-23 03:48:00,46.8,45.5,29.88,SE,129,0.0,0.0,95,0.03,,FEW,0.09,VWS V14.01,2013-05-23 10:48:00,
2013-05-23 03:53:00,47.0,45.7,29.88,SE,129,0.0,0.0,95,0.03,,FEW,0.09,VWS V14.01,2013-05-23 10:53:00,
2013-05-23 03:58:00,46.8,45.5,29.88,SE,129,0.0,0.0,95,0.03,,FEW,0.09,VWS V14.01,2013-05-23 10:58:00,
2013-05-23 04:03:00,46.8,45.5,29.88,SE,129,0.0,0.0,95,0.02,,FEW,0.09,VWS V14.01,2013-05-23 11:03:00,
2013-05-23 04:08:00,46.7,45.3,29.88,SE,129,0.0,0.0,95,0.02,,FEW,0.09,VWS V14.01,2013-05-23 11:08:00,
2013-05-23 04:13:00,46.5,45.2,29.88,SE,129,0.0,0.0,95,0.03,,FEW,0.10,VWS V14.01,2013-05-23 11:13:00,
2013-05-23 04:18:00,46.5,45.2,29.88,SE,129,0.0,0.0,95,0.03,,FEW,0.10,VWS V14.01,2013-05-23 11:18:00,
2013-05-23 04:23:00,46.5,45.2,29.88,SE,129,0.0,0.0,95,0.03,,FEW,0.10,VWS V14.01,2013-05-23 11:23:00,
2013-05-23 04:28:00,46.7,45.3,29.88,SE,129,0.0,0.0,95,0.03,,FEW,0.10,VWS V14.01,2013-05-23 11:28:00,
2013-05-23 04:33:00,46.8,45.5,29.88,SE,129,0.0,0.0,95,0.01,,FEW,0.10,VWS V14.01,2013-05-23 11:33:00,
2013-05-23 04:38:00,46.7,45.3,29.88,SE,129,0.0,0.0,95,0.01,,FEW,0.10,VWS V14.01,2013-05-23 11:38:00,
2013-05-23 04:43:00,46.7,45.3,29.88,SE,129,0.0,0.0,95,0.01,,FEW,0.10,VWS V14.01,2013-05-23 11:43:00,
2013-05-23 04:48:00,46.7,45.3,29.88,SE,129,0.0,0.0,95,0.01,,FEW,0.10,VWS V14.01,2013-05-23 11:48:00,
2013-05-23 04:54:00,46.7,45.3,29.88,SE,129,0.0,0.0,95,0.01,,FEW,0.10,VWS V14.01,2013-05-23 11:54:00,
2013-05-23 04:59:00,46.7,45.3,29.88,SE,129,0.0,0.0,95,0.01,,FEW,0.10,VWS V14.01,2013-05-23 11:59:00,
2013-05-23 05:04:00,46.7,45.3,29.88,SE,129,0.0,0.0,95,0.01,,FEW,0.10,VWS V14.01,2013-05-23 12:04:00,
2013-05-23 05:09:00,46.7,45.3,29.88,SE,129,0.0,0.0,95,0.02,,FEW,0.11,VWS V14.01,2013-05-23 12:09:00,
2013-05-23 05:14:00,46.8,45.5,29.88,SE,129,0.0,0.0,95,0.02,,FEW,0.11,VWS V14.01,2013-05-23 12:14:00,
2013-05-23 05:19:00,46.7,45.3,29.88,SE,129,0.0,0.0,95,0.02,,FEW,0.11,VWS V14.01,2013-05-23 12:19:00,
2013-05-23 05:24:00,46.7,45.3,29.88,SE,129,0.0,0.0,95,0.02,,FEW,0.11,VWS V14.01,2013-05-23 12:24:00,
2013-05-23 05:29:00,46.7,45.3,29.88,SE,129,0.0,0.0,95,0.03,,FEW,0.12,VWS V14.01,2013-05-23 12:29:00,
2013-05-23 05:34:00,46.7,45.6,29.88,SE,129,0.0,0.0,96,0.03,,FEW,0.13,VWS V14.01,2013-05-23 12:34:00,
2013-05-23 05:39:00,46.8,45.7,29.88,SE,129,0.0,0.0,96,0.03,,FEW,0.13,VWS V14.01,2013-05-23 12:39:00,
2013-05-23 05:44:00,47.0,45.9,29.88,SE,129,0.0,0.0,96,0.04,,FEW,0.14,VWS V14.01,2013-05-23 12:44:00,
2013-05-23 05:49:00,47.0,45.9,29.88,SE,129,0.0,0.0,96,0.05,,FEW,0.15,VWS V14.01,2013-05-23 12:49:00,
2013-05-23 05:54:00,47.0,45.9,29.88,SE,129,0.0,0.0,96,0.05,,FEW,0.15,VWS V14.01,2013-05-23 12:54:00,
2013-05-23 05:59:00,47.0,45.9,29.88,SE,129,0.0,0.0,96,0.05,,FEW,0.15,VWS V14.01,2013-05-23 12:59:00,
2013-05-23 06:04:00,47.1,46.0,29.88,SE,129,0.0,0.0,96,0.06,,FEW,0.16,VWS V14.01,2013-05-23 13:04:00,
2013-05-23 06:09:00,47.1,46.0,29.88,SE,129,0.0,0.0,96,0.06,,FEW,0.16,VWS V14.01,2013-05-23 13:09:00,
2013-05-23 06:14:00,47.1,46.0,29.88,SE,129,0.0,0.0,96,0.07,,FEW,0.17,VWS V14.01,2013-05-23 13:14:00,
2013-05-23 06:19:00,47.3,46.2,29.88,SE,129,0.0,0.0,96,0.07,,FEW,0.17,VWS V14.01,2013-05-23 13:19:00,
2013-05-23 06:24:00,47.4,46.3,29.88,SE,129,0.0,0.0,96,0.07,,FEW,0.17,VWS V14.01,2013-05-23 13:24:00,
2013-05-23 06:29:00,47.4,46.3,29.88,SE,129,0.0,0.0,96,0.07,,FEW,0.17,VWS V14.01,2013-05-23 13:29:00,
2013-05-23 06:34:00,47.6,46.5,29.88,SE,129,0.0,0.0,96,0.05,,FEW,0.17,VWS V14.01,2013-05-23 13:34:00,
2013-05-23 06:39:00,47.6,46.5,29.88,SE,129,0.0,0.0,96,0.05,,FEW,0.17,VWS V14.01,2013-05-23 13:39:00,
2013-05-23 06:44:00,47.6,46.5,29.88,SE,129,0.0,0.0,96,0.05,,FEW,0.17,VWS V14.01,2013-05-23 13:44:00,
2013-05-23 06:49:00,47.7,46.6,29.88,SE,129,0.0,0.0,96,0.05,,FEW,0.17,VWS V14.01,2013-05-23 13:49:00,
2013-05-23 06:54:00,47.9,46.8,29.88,SE,129,0.0,0.0,96,0.05,,FEW,0.17,VWS V14.01,2013-05-23 13:54:00,
2013-05-23 06:59:00,48.0,46.9,29.88,SE,129,0.0,0.0,96,0.05,,FEW,0.17,VWS V14.01,2013-05-23 13:59:00,
2013-05-23 07:04:00,47.9,46.8,29.88,SE,129,0.0,0.0,96,0.02,,FEW,0.17,VWS V14.01,2013-05-23 14:04:00,
2013-05-23 07:09:00,47.7,46.6,29.88,SE,129,0.0,0.0,96,0.02,,FEW,0.17,VWS V14.01,2013-05-23 14:09:00,
2013-05-23 07:14:00,47.9,46.8,29.89,SE,129,0.0,0.0,96,0.02,,FEW,0.17,VWS V14.01,2013-05-23 14:14:00,
2013-05-23 07:19:00,47.9,46.8,29.89,SE,129,0.0,0.0,96,0.02,,FEW,0.17,VWS V14.01,2013-05-23 14:19:00,
2013-05-23 07:24:00,47.9,46.8,29.89,SE,129,0.0,0.0,96,0.02,,FEW,0.17,VWS V14.01,2013-05-23 14:24:00,
2013-05-23 07:29:00,48.2,47.1,29.89,SE,129,0.0,0.0,96,0.02,,FEW,0.17,VWS V14.01,2013-05-23 14:29:00,
2013-05-23 07:34:00,48.3,47.2,29.89,SE,129,0.0,0.0,96,0.00,,FEW,0.17,VWS V14.01,2013-05-23 14:34:00,
2013-05-23 07:39:00,48.3,47.2,29.89,SE,129,0.0,0.0,96,0.00,,FEW,0.17,VWS V14.01,2013-05-23 14:39:00,
2013-05-23 07:44:00,48.5,47.4,29.89,SE,129,0.0,0.0,96,0.00,,FEW,0.17,VWS V14.01,2013-05-23 14:44:00,
2013-05-23 07:49:00,48.6,47.5,29.89,SE,129,0.0,0.0,96,0.00,,FEW,0.17,VWS V14.01,2013-05-23 14:49:00,
2013-05-23 07:54:00,48.5,47.4,29.89,SE,129,0.0,0.0,96,0.00,,FEW,0.17,VWS V14.01,2013-05-23 14:54:00,
2013-05-23 07:59:00,48.5,47.4,29.90,ENE,77,0.0,0.0,96,0.00,,FEW,0.17,VWS V14.01,2013-05-23 14:59:00,
2013-05-23 08:04:00,48.3,47.2,29.90,ENE,77,0.0,0.0,96,0.00,,FEW,0.17,VWS V14.01,2013-05-23 15:04:00,
2013-05-23 08:09:00,48.5,47.4,29.90,ENE,77,0.0,0.0,96,0.00,,FEW,0.17,VWS V14.01,2013-05-23 15:09:00,
2013-05-23 08:14:00,48.6,47.5,29.89,ENE,77,0.0,0.0,96,0.00,,FEW,0.17,VWS V14.01,2013-05-23 15:14:00,
2013-05-23 08:19:00,49.1,48.0,29.89,ENE,77,0.0,0.0,96,0.00,,FEW,0.17,VWS V14.01,2013-05-23 15:19:00,
2013-05-23 08:24:00,49.6,48.5,29.89,ENE,77,0.0,0.0,96,0.00,,FEW,0.17,VWS V14.01,2013-05-23 15:24:00,
2013-05-23 08:29:00,49.8,48.7,29.90,ENE,77,0.0,0.0,96,0.00,,FEW,0.17,VWS V14.01,2013-05-23 15:29:00,
2013-05-23 08:34:00,49.9,48.8,29.90,ENE,77,0.0,0.0,96,0.00,,FEW,0.17,VWS V14.01,2013-05-23 15:34:00,
2013-05-23 08:39:00,49.9,48.8,29.90,ENE,77,0.0,0.0,96,0.00,,FEW,0.17,VWS V14.01,2013-05-23 15:39:00,
2013-05-23 08:44:00,49.9,48.5,29.90,ENE,77,0.0,0.0,95,0.00,,FEW,0.17,VWS V14.01,2013-05-23 15:44:00,
2013-05-23 08:49:00,50.1,48.7,29.90,ENE,77,0.0,0.0,95,0.00,,FEW,0.17,VWS V14.01,2013-05-23 15:49:00,
2013-05-23 08:54:00,50.2,48.8,29.90,ENE,76,0.0,0.0,95,0.00,,FEW,0.17,VWS V14.01,2013-05-23 15:54:00,
2013-05-23 08:59:00,50.4,49.0,29.91,ENE,76,0.0,0.0,95,0.00,,FEW,0.17,VWS V14.01,2013-05-23 15:59:00,
2013-05-23 09:04:00,50.7,49.3,29.91,ENE,76,0.0,0.0,95,0.00,,FEW,0.17,VWS V14.01,2013-05-23 16:04:00,
2013-05-23 09:09:00,51.1,49.4,29.91,ENE,76,0.0,0.0,94,0.00,,FEW,0.17,VWS V14.01,2013-05-23 16:09:00,
2013-05-23 09:14:00,51.3,49.6,29.90,ENE,76,0.0,0.0,94,0.00,,FEW,0.17,VWS V14.01,2013-05-23 16:14:00,
2013-05-23 09:20:00,51.6,49.9,29.90,NNW,342,0.0,0.0,94,0.00,,FEW,0.17,VWS V14.01,2013-05-23 16:20:00,
2013-05-23 09:25:00,51.9,49.9,29.90,NNW,348,0.0,0.0,93,0.00,,FEW,0.17,VWS V14.01,2013-05-23 16:25:00,
2013-05-23 09:30:00,52.0,49.8,29.90,NNW,348,0.0,0.0,92,0.00,,FEW,0.17,VWS V14.01,2013-05-23 16:30:00,
2013-05-23 09:35:00,52.2,49.7,29.90,NNW,348,0.0,0.0,91,0.00,,FEW,0.17,VWS V14.01,2013-05-23 16:35:00,
2013-05-23 09:40:00,52.0,48.9,29.90,NNW,348,0.0,0.0,89,0.00,,FEW,0.17,VWS V14.01,2013-05-23 16:40:00,
2013-05-23 09:45:00,52.2,49.1,29.90,NNW,348,0.0,0.0,89,0.00,,FEW,0.17,VWS V14.01,2013-05-23 16:45:00,
2013-05-23 09:50:00,52.8,49.0,29.90,SSW,193,0.0,0.0,87,0.00,,FEW,0.17,VWS V14.01,2013-05-23 16:50:00,
2013-05-23 09:55:00,53.2,48.5,29.90,SE,124,0.0,4.0,84,0.00,,FEW,0.17,VWS V14.01,2013-05-23 16:55:00,
2013-05-23 10:00:00,54.2,49.5,29.89,SE,131,3.0,3.0,84,0.00,,FEW,0.17,VWS V14.01,2013-05-23 17:00:00,
2013-05-23 10:05:00,53.9,47.5,29.89,SSW,210,2.0,7.0,79,0.00,,FEW,0.17,VWS V14.01,2013-05-23 17:05:00,
2013-05-23 10:10:00,53.9,47.5,29.89,South,184,2.0,7.0,79,0.00,,FEW,0.17,VWS V14.01,2013-05-23 17:10:00,
2013-05-23 10:15:00,53.8,47.1,29.89,SSW,192,5.0,7.0,78,0.00,,FEW,0.17,VWS V14.01,2013-05-23 17:15:00,
2013-05-23 10:20:00,53.8,46.8,29.89,South,189,3.0,7.0,77,0.00,,FEW,0.17,VWS V14.01,2013-05-23 17:20:00,
2013-05-23 10:25:00,53.8,45.7,29.89,SSW,213,3.0,7.0,74,0.00,,FEW,0.17,VWS V14.01,2013-05-23 17:25:00,
2013-05-23 10:30:00,53.8,45.7,29.89,SE,146,3.0,5.0,74,0.00,,FEW,0.17,VWS V14.01,2013-05-23 17:30:00,
2013-05-23 10:35:00,53.8,46.1,29.89,South,191,4.0,5.0,75,0.00,,FEW,0.17,VWS V14.01,2013-05-23 17:35:00,
2013-05-23 10:40:00,53.6,45.2,29.89,SW,216,3.0,11.0,73,0.00,,FEW,0.17,VWS V14.01,2013-05-23 17:40:00,
2013-05-23 10:45:00,53.6,45.9,29.90,SSW,194,4.0,11.0,75,0.00,,FEW,0.17,VWS V14.01,2013-05-23 17:45:00,
2013-05-23 10:50:00,53.6,45.2,29.90,South,189,5.0,11.0,73,0.00,,FEW,0.17,VWS V14.01,2013-05-23 17:50:00,
2013-05-23 10:55:00,53.6,45.5,29.90,South,187,0.0,11.0,74,0.00,,FEW,0.17,VWS V14.01,2013-05-23 17:55:00,
2013-05-23 11:00:00,53.5,46.1,29.90,SSW,200,9.0,11.0,76,0.00,,FEW,0.17,VWS V14.01,2013-05-23 18:00:00,
2013-05-23 11:05:00,52.9,44.8,29.90,South,186,5.0,12.0,74,0.00,,FEW,0.17,VWS V14.01,2013-05-23 18:05:00,
2013-05-23 11:10:00,52.5,44.5,29.90,South,187,6.0,12.0,74,0.00,,FEW,0.17,VWS V14.01,2013-05-23 18:10:00,
2013-05-23 11:15:00,52.2,45.2,29.91,South,176,2.0,12.0,77,0.00,,FEW,0.17,VWS V14.01,2013-05-23 18:15:00,
2013-05-23 11:21:00,51.9,45.6,29.91,South,176,0.0,12.0,79,0.00,,FEW,0.17,VWS V14.01,2013-05-23 18:21:00,
2013-05-23 11:26:00,51.7,46.1,29.91,SSW,196,2.0,12.0,81,0.01,,FEW,0.18,VWS V14.01,2013-05-23 18:26:00,
2013-05-23 11:31:00,51.4,46.4,29.91,South,191,0.0,1.0,83,0.01,,FEW,0.18,VWS V14.01,2013-05-23 18:31:00,
2013-05-23 11:36:00,51.3,46.6,29.91,South,191,0.0,2.0,84,0.01,,FEW,0.18,VWS V14.01,2013-05-23 18:36:00,
2013-05-23 11:41:00,51.3,47.0,29.91,SSW,196,0.0,2.0,85,0.02,,FEW,0.19,VWS V14.01,2013-05-23 18:41:00,
2013-05-23 11:46:00,51.3,47.6,29.91,SSW,196,2.0,2.0,87,0.02,,FEW,0.19,VWS V14.01,2013-05-23 18:46:00,
2013-05-23 11:51:00,51.1,47.4,29.91,SSW,200,0.0,3.0,87,0.03,,FEW,0.20,VWS V14.01,2013-05-23 18:51:00,
2013-05-23 11:56:00,51.3,47.6,29.91,SSW,200,0.0,3.0,87,0.03,,FEW,0.20,VWS V14.01,2013-05-23 18:56:00,
2013-05-23 12:01:00,51.3,47.9,29.91,SSW,201,0.0,2.0,88,0.03,,FEW,0.20,VWS V14.01,2013-05-23 19:01:00,
2013-05-23 12:06:00,51.3,47.9,29.91,SSW,201,0.0,2.0,88,0.04,,FEW,0.21,VWS V14.01,2013-05-23 19:06:00,
2013-05-23 12:11:00,51.1,47.4,29.91,SSW,201,0.0,2.0,87,0.04,,FEW,0.21,VWS V14.01,2013-05-23 19:11:00,
2013-05-23 12:16:00,51.3,47.9,29.91,SSW,201,0.0,2.0,88,0.04,,FEW,0.21,VWS V14.01,2013-05-23 19:16:00,
2013-05-23 12:21:00,51.4,48.0,29.91,SE,134,1.0,2.0,88,0.04,,FEW,0.21,VWS V14.01,2013-05-23 19:21:00,
2013-05-23 12:26:00,51.4,48.0,29.91,South,190,1.0,3.0,88,0.04,,FEW,0.21,VWS V14.01,2013-05-23 19:26:00,
2013-05-23 12:31:00,51.6,48.2,29.91,South,190,0.0,0.0,88,0.04,,FEW,0.22,VWS V14.01,2013-05-23 19:31:00,
2013-05-23 12:36:00,51.9,48.5,29.91,SE,126,0.0,2.0,88,0.04,,FEW,0.22,VWS V14.01,2013-05-23 19:36:00,
2013-05-23 12:41:00,52.0,48.6,29.91,SSW,207,0.0,2.0,88,0.04,,FEW,0.22,VWS V14.01,2013-05-23 19:41:00,
2013-05-23 12:46:00,51.9,47.8,29.91,South,189,1.0,3.0,86,0.04,,FEW,0.22,VWS V14.01,2013-05-23 19:46:00,
2013-05-23 12:51:00,52.0,48.3,29.91,SSE,152,1.0,5.0,87,0.04,,FEW,0.22,VWS V14.01,2013-05-23 19:51:00,
2013-05-23 12:56:00,52.0,47.6,29.91,South,182,3.0,5.0,85,0.04,,FEW,0.22,VWS V14.01,2013-05-23 19:56:00,
2013-05-23 13:01:00,52.0,48.0,29.91,SE,134,0.0,3.0,86,0.03,,FEW,0.23,VWS V14.01,2013-05-23 20:01:00,
2013-05-23 13:06:00,52.0,47.6,29.91,South,185,4.0,5.0,85,0.03,,FEW,0.23,VWS V14.01,2013-05-23 20:06:00,
2013-05-23 13:11:00,51.7,47.7,29.91,South,191,0.0,5.0,86,0.03,,FEW,0.23,VWS V14.01,2013-05-23 20:11:00,
2013-05-23 13:16:00,51.6,47.9,29.91,South,185,0.0,5.0,87,0.04,,FEW,0.24,VWS V14.01,2013-05-23 20:16:00,
2013-05-23 13:21:00,51.4,47.7,29.91,South,189,0.0,5.0,87,0.04,,FEW,0.24,VWS V14.01,2013-05-23 20:21:00,
2013-05-23 13:26:00,51.4,48.0,29.91,South,184,1.0,5.0,88,0.04,,FEW,0.24,VWS V14.01,2013-05-23 20:26:00,
2013-05-23 13:31:00,51.4,48.3,29.92,South,184,2.0,4.0,89,0.03,,FEW,0.25,VWS V14.01,2013-05-23 20:31:00,
2013-05-23 13:36:00,51.4,48.6,29.92,South,184,0.0,4.0,90,0.04,,FEW,0.26,VWS V14.01,2013-05-23 20:36:00,
2013-05-23 13:41:00,51.3,48.2,29.92,South,184,0.0,4.0,89,0.04,,FEW,0.26,VWS V14.01,2013-05-23 20:41:00,
2013-05-23 13:46:00,51.1,48.0,29.92,South,184,0.0,4.0,89,0.05,,FEW,0.27,VWS V14.01,2013-05-23 20:46:00,
2013-05-23 13:52:00,51.0,47.9,29.92,South,179,3.0,4.0,89,0.06,,FEW,0.28,VWS V14.01,2013-05-23 20:52:00,
2013-05-23 13:57:00,50.8,47.7,29.92,SSW,195,0.0,4.0,89,0.06,,FEW,0.28,VWS V14.01,2013-05-23 20:57:00,
2013-05-23 14:02:00,50.7,47.6,29.92,SSW,199,0.0,0.0,89,0.07,,FEW,0.29,VWS V14.01,2013-05-23 21:02:00,
2013-05-23 14:07:00,51.0,48.2,29.92,WSW,243,0.0,3.0,90,0.08,,FEW,0.30,VWS V14.01,2013-05-23 21:07:00,
2013-05-23 14:12:00,51.0,48.2,29.92,South,189,3.0,3.0,90,0.08,,FEW,0.30,VWS V14.01,2013-05-23 21:12:00,
2013-05-23 14:17:00,50.7,47.6,29.92,SW,230,0.0,3.0,89,0.09,,FEW,0.31,VWS V14.01,2013-05-23 21:17:00,
2013-05-23 14:22:00,50.8,48.0,29.92,SW,230,0.0,3.0,90,0.09,,FEW,0.31,VWS V14.01,2013-05-23 21:22:00,
2013-05-23 14:27:00,51.0,48.2,29.92,SW,230,1.0,3.0,90,0.10,,FEW,0.32,VWS V14.01,2013-05-23 21:27:00,
2013-05-23 14:32:00,51.1,48.3,29.92,WSW,251,0.0,2.0,90,0.07,,FEW,0.32,VWS V14.01,2013-05-23 21:32:00,
2013-05-23 14:37:00,51.3,48.8,29.92,WSW,251,0.0,2.0,91,0.07,,FEW,0.32,VWS V14.01,2013-05-23 21:37:00,
2013-05-23 14:42:00,51.7,49.2,29.92,WSW,251,0.0,2.0,91,0.08,,FEW,0.33,VWS V14.01,2013-05-23 21:42:00,
2013-05-23 14:47:00,52.0,49.8,29.92,WSW,251,0.0,2.0,92,0.08,,FEW,0.33,VWS V14.01,2013-05-23 21:47:00,
2013-05-23 14:52:00,52.2,49.7,29.92,WSW,251,0.0,2.0,91,0.08,,FEW,0.33,VWS V14.01,2013-05-23 21:52:00,
2013-05-23 14:57:00,52.3,50.0,29.92,WSW,251,0.0,2.0,92,0.09,,FEW,0.34,VWS V14.01,2013-05-23 21:57:00,
2013-05-23 15:02:00,52.6,50.3,29.92,WSW,251,0.0,0.0,92,0.05,,FEW,0.34,VWS V14.01,2013-05-23 22:02:00,
2013-05-23 15:07:00,52.9,50.3,29.92,WSW,251,0.0,0.0,91,0.05,,FEW,0.34,VWS V14.01,2013-05-23 22:07:00,
2013-05-23 15:12:00,53.2,50.9,29.92,WSW,251,0.0,0.0,92,0.05,,FEW,0.34,VWS V14.01,2013-05-23 22:12:00,
2013-05-23 15:17:00,53.3,50.7,29.92,WSW,251,0.0,0.0,91,0.05,,FEW,0.34,VWS V14.01,2013-05-23 22:17:00,
2013-05-23 15:22:00,53.3,50.5,29.92,WSW,251,0.0,0.0,90,0.05,,FEW,0.34,VWS V14.01,2013-05-23 22:22:00,
2013-05-23 15:27:00,53.2,49.7,29.92,WSW,251,0.0,0.0,88,0.05,,FEW,0.34,VWS V14.01,2013-05-23 22:27:00,
2013-05-23 15:32:00,53.3,49.8,29.91,WSW,251,0.0,0.0,88,0.02,,FEW,0.34,VWS V14.01,2013-05-23 22:32:00,
2013-05-23 15:37:00,53.3,49.8,29.91,WSW,251,0.0,0.0,88,0.02,,FEW,0.34,VWS V14.01,2013-05-23 22:37:00,
2013-05-23 15:42:00,53.6,50.4,29.91,WSW,251,0.0,0.0,89,0.02,,FEW,0.34,VWS V14.01,2013-05-23 22:42:00,
2013-05-23 15:47:00,53.9,50.7,29.91,WSW,251,0.0,0.0,89,0.02,,FEW,0.34,VWS V14.01,2013-05-23 22:47:00,
2013-05-23 15:52:00,54.1,50.9,29.91,WSW,251,0.0,0.0,89,0.02,,FEW,0.34,VWS V14.01,2013-05-23 22:52:00,
2013-05-23 15:57:00,54.4,51.2,29.91,WSW,251,0.0,0.0,89,0.02,,FEW,0.34,VWS V14.01,2013-05-23 22:57:00,
2013-05-23 16:02:00,54.7,51.5,29.91,WSW,251,0.0,0.0,89,0.00,,FEW,0.34,VWS V14.01,2013-05-23 23:02:00,
2013-05-23 16:07:00,54.7,51.5,29.91,WSW,251,0.0,0.0,89,0.00,,FEW,0.34,VWS V14.01,2013-05-23 23:07:00,
2013-05-23 16:12:00,54.8,51.6,29.91,WSW,251,0.0,0.0,89,0.00,,FEW,0.34,VWS V14.01,2013-05-23 23:12:00,
2013-05-23 16:17:00,55.1,51.9,29.91,WSW,251,0.0,0.0,89,0.00,,FEW,0.34,VWS V14.01,2013-05-23 23:17:00,
2013-05-23 16:22:00,55.1,51.9,29.91,WSW,251,0.0,0.0,89,0.00,,FEW,0.34,VWS V14.01,2013-05-23 23:22:00,
2013-05-23 16:27:00,55.0,51.5,29.91,NNE,14,0.0,3.0,88,0.00,,FEW,0.34,VWS V14.01,2013-05-23 23:27:00,
2013-05-23 16:32:00,55.0,51.8,29.91,NNE,14,0.0,2.0,89,0.00,,FEW,0.34,VWS V14.01,2013-05-23 23:32:00,
2013-05-23 16:37:00,55.0,51.8,29.91,NNE,14,0.0,2.0,89,0.00,,FEW,0.34,VWS V14.01,2013-05-23 23:37:00,
2013-05-23 16:42:00,55.1,51.9,29.91,NNE,14,0.0,2.0,89,0.00,,FEW,0.34,VWS V14.01,2013-05-23 23:42:00,
2013-05-23 16:47:00,55.1,51.9,29.91,NNE,14,0.0,2.0,89,0.00,,FEW,0.34,VWS V14.01,2013-05-23 23:47:00,
2013-05-23 16:52:00,55.1,52.2,29.91,NNE,14,0.0,2.0,90,0.00,,FEW,0.34,VWS V14.01,2013-05-23 23:52:00,
2013-05-23 16:57:00,55.4,52.5,29.91,NNE,14,0.0,2.0,90,0.00,,FEW,0.34,VWS V14.01,2013-05-23 23:57:00,
2013-05-23 17:02:00,55.1,51.9,29.90,NNE,14,0.0,2.0,89,0.00,,FEW,0.34,VWS V14.01,2013-05-24 00:02:00,
2013-05-23 17:07:00,55.1,51.9,29.90,NNE,14,0.0,2.0,89,0.00,,FEW,0.34,VWS V14.01,2013-05-24 00:07:00,
2013-05-23 17:13:00,55.0,51.8,29.90,NNE,14,0.0,2.0,89,0.00,,FEW,0.34,VWS V14.01,2013-05-24 00:13:00,
2013-05-23 17:18:00,55.0,51.8,29.90,NNE,14,2.0,2.0,89,0.00,,FEW,0.34,VWS V14.01,2013-05-24 00:18:00,
2013-05-23 17:23:00,54.8,51.6,29.90,NNE,14,0.0,3.0,89,0.00,,FEW,0.34,VWS V14.01,2013-05-24 00:23:00,
2013-05-23 17:28:00,54.8,51.6,29.90,NNE,14,0.0,3.0,89,0.00,,FEW,0.34,VWS V14.01,2013-05-24 00:28:00,
2013-05-23 17:33:00,55.0,51.8,29.90,NNE,14,0.0,2.0,89,0.00,,FEW,0.34,VWS V14.01,2013-05-24 00:33:00,
2013-05-23 17:38:00,54.7,51.2,29.90,NNE,14,0.0,2.0,88,0.00,,FEW,0.34,VWS V14.01,2013-05-24 00:38:00,
2013-05-23 17:43:00,54.8,51.6,29.90,NNE,14,0.0,2.0,89,0.00,,FEW,0.34,VWS V14.01,2013-05-24 00:43:00,
2013-05-23 17:48:00,55.0,51.8,29.90,North,5,0.0,2.0,89,0.00,,FEW,0.34,VWS V14.01,2013-05-24 00:48:00,
2013-05-23 17:53:00,54.8,51.6,29.90,North,5,0.0,2.0,89,0.00,,FEW,0.34,VWS V14.01,2013-05-24 00:53:00,
2013-05-23 17:58:00,54.8,51.6,29.90,North,5,0.0,2.0,89,0.00,,FEW,0.34,VWS V14.01,2013-05-24 00:58:00,
2013-05-23 18:03:00,55.0,52.1,29.89,North,5,1.0,1.0,90,0.00,,FEW,0.34,VWS V14.01,2013-05-24 01:03:00,
2013-05-23 18:08:00,55.1,52.2,29.89,North,5,0.0,1.0,90,0.00,,FEW,0.34,VWS V14.01,2013-05-24 01:08:00,
2013-05-23 18:13:00,55.1,52.2,29.89,North,5,0.0,1.0,90,0.00,,FEW,0.34,VWS V14.01,2013-05-24 01:13:00,
2013-05-23 18:18:00,55.3,52.7,29.89,North,5,0.0,1.0,91,0.00,,FEW,0.34,VWS V14.01,2013-05-24 01:18:00,
2013-05-23 18:23:00,55.3,52.7,29.89,North,5,0.0,1.0,91,0.00,,FEW,0.34,VWS V14.01,2013-05-24 01:23:00,
2013-05-23 18:28:00,55.3,52.7,29.89,North,5,0.0,1.0,91,0.00,,FEW,0.34,VWS V14.01,2013-05-24 01:28:00,
2013-05-23 18:33:00,55.1,52.5,29.89,North,5,0.0,0.0,91,0.00,,FEW,0.34,VWS V14.01,2013-05-24 01:33:00,
2013-05-23 18:38:00,55.0,52.4,29.89,NNW,338,0.0,1.0,91,0.00,,FEW,0.34,VWS V14.01,2013-05-24 01:38:00,
2013-05-23 18:43:00,54.7,52.1,29.89,North,5,0.0,2.0,91,0.01,,FEW,0.35,VWS V14.01,2013-05-24 01:43:00,
2013-05-23 18:48:00,54.7,52.1,29.89,North,5,0.0,2.0,91,0.01,,FEW,0.35,VWS V14.01,2013-05-24 01:48:00,
2013-05-23 18:53:00,54.5,51.9,29.89,North,5,0.0,2.0,91,0.01,,FEW,0.35,VWS V14.01,2013-05-24 01:53:00,
2013-05-23 18:58:00,54.5,52.2,29.89,North,5,0.0,2.0,92,0.01,,FEW,0.35,VWS V14.01,2013-05-24 01:58:00,
2013-05-23 19:03:00,54.5,52.2,29.89,North,5,0.0,0.0,92,0.01,,FEW,0.35,VWS V14.01,2013-05-24 02:03:00,
2013-05-23 19:08:00,54.4,52.1,29.89,North,5,0.0,0.0,92,0.01,,FEW,0.35,VWS V14.01,2013-05-24 02:08:00,
2013-05-23 19:13:00,54.2,51.9,29.89,North,5,0.0,0.0,92,0.01,,FEW,0.35,VWS V14.01,2013-05-24 02:13:00,
2013-05-23 19:18:00,54.4,52.1,29.88,North,5,0.0,0.0,92,0.01,,FEW,0.35,VWS V14.01,2013-05-24 02:18:00,
2013-05-23 19:23:00,54.2,51.9,29.88,North,5,0.0,0.0,92,0.01,,FEW,0.35,VWS V14.01,2013-05-24 02:23:00,
2013-05-23 19:28:00,54.1,51.8,29.88,North,5,0.0,0.0,92,0.01,,FEW,0.35,VWS V14.01,2013-05-24 02:28:00,
2013-05-23 19:33:00,54.1,51.8,29.89,North,5,0.0,0.0,92,0.01,,FEW,0.35,VWS V14.01,2013-05-24 02:33:00,
2013-05-23 19:39:00,54.1,51.8,29.89,North,5,0.0,0.0,92,0.01,,FEW,0.35,VWS V14.01,2013-05-24 02:39:00,
2013-05-23 19:44:00,53.9,51.6,29.89,North,5,0.0,0.0,92,0.01,,FEW,0.35,VWS V14.01,2013-05-24 02:44:00,
2013-05-23 19:49:00,53.8,51.5,29.89,North,5,0.0,0.0,92,0.01,,FEW,0.35,VWS V14.01,2013-05-24 02:49:00,
2013-05-23 19:54:00,53.8,51.5,29.89,North,5,0.0,0.0,92,0.01,,FEW,0.35,VWS V14.01,2013-05-24 02:54:00,
2013-05-23 19:59:00,53.8,51.5,29.89,North,5,0.0,0.0,92,0.01,,FEW,0.35,VWS V14.01,2013-05-24 02:59:00,
2013-05-23 20:04:00,53.8,51.8,29.88,North,5,0.0,0.0,93,0.00,,FEW,0.35,VWS V14.01,2013-05-24 03:04:00,
2013-05-23 20:09:00,53.8,51.8,29.88,North,5,0.0,0.0,93,0.00,,FEW,0.35,VWS V14.01,2013-05-24 03:09:00,
2013-05-23 20:14:00,53.6,51.6,29.89,North,5,0.0,0.0,93,0.00,,FEW,0.35,VWS V14.01,2013-05-24 03:14:00,
2013-05-23 20:19:00,53.6,51.6,29.89,North,5,0.0,0.0,93,0.00,,FEW,0.35,VWS V14.01,2013-05-24 03:19:00,
2013-05-23 20:24:00,53.6,51.6,29.89,North,5,0.0,0.0,93,0.00,,FEW,0.35,VWS V14.01,2013-05-24 03:24:00,
2013-05-23 20:29:00,53.5,51.5,29.89,North,5,0.0,0.0,93,0.00,,FEW,0.35,VWS V14.01,2013-05-24 03:29:00,
2013-05-23 20:34:00,53.5,51.5,29.89,North,5,0.0,0.0,93,0.00,,FEW,0.35,VWS V14.01,2013-05-24 03:34:00,
2013-05-23 20:39:00,53.6,51.6,29.89,North,5,0.0,0.0,93,0.00,,FEW,0.35,VWS V14.01,2013-05-24 03:39:00,
2013-05-23 20:44:00,53.5,51.5,29.88,North,5,0.0,0.0,93,0.00,,FEW,0.35,VWS V14.01,2013-05-24 03:44:00,
2013-05-23 20:49:00,53.5,51.5,29.88,North,5,0.0,0.0,93,0.00,,FEW,0.35,VWS V14.01,2013-05-24 03:49:00,
2013-05-23 20:54:00,53.2,51.2,29.88,North,5,0.0,0.0,93,0.00,,FEW,0.35,VWS V14.01,2013-05-24 03:54:00,
2013-05-23 20:59:00,53.2,51.2,29.88,North,5,0.0,0.0,93,0.00,,FEW,0.35,VWS V14.01,2013-05-24 03:59:00,
2013-05-23 21:01:00,53.2,51.2,29.88,North,5,0.0,0.0,93,0.00,,FEW,0.35,VWS V14.01,2013-05-24 04:01:00,
2013-05-23 21:06:00,53.1,51.1,29.88,North,5,0.0,0.0,93,0.00,,FEW,0.35,VWS V14.01,2013-05-24 04:06:00,
2013-05-23 21:11:00,53.1,51.4,29.88,North,5,0.0,0.0,94,0.00,,FEW,0.35,VWS V14.01,2013-05-24 04:11:00,
2013-05-23 21:16:00,53.1,51.4,29.89,North,5,0.0,0.0,94,0.00,,FEW,0.35,VWS V14.01,2013-05-24 04:16:00,
2013-05-23 21:21:00,53.1,51.4,29.89,North,5,0.0,0.0,94,0.00,,FEW,0.35,VWS V14.01,2013-05-24 04:21:00,
2013-05-23 21:26:00,52.8,51.1,29.89,North,5,0.0,0.0,94,0.00,,FEW,0.35,VWS V14.01,2013-05-24 04:26:00,
2013-05-23 21:31:00,52.8,51.1,29.89,North,5,0.0,0.0,94,0.00,,FEW,0.35,VWS V14.01,2013-05-24 04:31:00,
2013-05-23 21:36:00,52.8,51.1,29.89,North,5,0.0,0.0,94,0.00,,FEW,0.35,VWS V14.01,2013-05-24 04:36:00,
2013-05-23 21:42:00,52.8,51.1,29.89,North,5,0.0,0.0,94,0.00,,FEW,0.35,VWS V14.01,2013-05-24 04:42:00,
2013-05-23 21:47:00,52.6,50.9,29.89,North,5,0.0,0.0,94,0.00,,FEW,0.35,VWS V14.01,2013-05-24 04:47:00,
2013-05-23 21:52:00,52.6,50.9,29.89,North,5,0.0,0.0,94,0.00,,FEW,0.35,VWS V14.01,2013-05-24 04:52:00,
2013-05-23 21:57:00,52.6,50.9,29.89,North,5,0.0,0.0,94,0.00,,FEW,0.35,VWS V14.01,2013-05-24 04:57:00,
2013-05-23 22:02:00,52.5,50.8,29.89,North,5,0.0,0.0,94,0.00,,FEW,0.35,VWS V14.01,2013-05-24 05:02:00,
2013-05-23 22:07:00,52.6,50.9,29.89,North,5,0.0,0.0,94,0.00,,FEW,0.35,VWS V14.01,2013-05-24 05:07:00,
2013-05-23 22:12:00,52.6,50.9,29.89,North,5,0.0,0.0,94,0.00,,FEW,0.35,VWS V14.01,2013-05-24 05:12:00,
2013-05-23 22:17:00,52.5,50.8,29.89,North,5,0.0,0.0,94,0.00,,FEW,0.35,VWS V14.01,2013-05-24 05:17:00,
2013-05-23 22:22:00,52.5,51.1,29.89,North,5,0.0,0.0,95,0.00,,FEW,0.35,VWS V14.01,2013-05-24 05:22:00,
2013-05-23 22:27:00,52.5,51.1,29.89,North,5,0.0,0.0,95,0.00,,FEW,0.35,VWS V14.01,2013-05-24 05:27:00,
2013-05-23 22:32:00,52.6,51.2,29.89,North,5,0.0,0.0,95,0.00,,FEW,0.35,VWS V14.01,2013-05-24 05:32:00,
2013-05-23 22:37:00,52.6,51.2,29.89,North,5,0.0,0.0,95,0.00,,FEW,0.35,VWS V14.01,2013-05-24 05:37:00,
2013-05-23 22:42:00,52.6,51.2,29.89,North,5,0.0,0.0,95,0.00,,FEW,0.35,VWS V14.01,2013-05-24 05:42:00,
2013-05-23 22:47:00,52.6,51.2,29.90,North,5,0.0,0.0,95,0.00,,FEW,0.35,VWS V14.01,2013-05-24 05:47:00,
2013-05-23 22:52:00,52.6,51.2,29.90,North,5,0.0,0.0,95,0.00,,FEW,0.35,VWS V14.01,2013-05-24 05:52:00,
2013-05-23 22:57:00,52.6,51.2,29.90,North,5,0.0,0.0,95,0.00,,FEW,0.35,VWS V14.01,2013-05-24 05:57:00,
2013-05-23 23:02:00,52.5,51.1,29.90,North,5,0.0,0.0,95,0.00,,FEW,0.35,VWS V14.01,2013-05-24 06:02:00,
2013-05-23 23:07:00,52.5,51.1,29.90,North,5,0.0,0.0,95,0.00,,FEW,0.35,VWS V14.01,2013-05-24 06:07:00,
2013-05-23 23:12:00,52.5,51.1,29.90,North,5,0.0,0.0,95,0.00,,FEW,0.35,VWS V14.01,2013-05-24 06:12:00,
2013-05-23 23:17:00,52.5,51.1,29.90,North,5,0.0,0.0,95,0.00,,FEW,0.35,VWS V14.01,2013-05-24 06:17:00,
2013-05-23 23:22:00,52.5,51.1,29.90,North,5,0.0,0.0,95,0.00,,FEW,0.35,VWS V14.01,2013-05-24 06:22:00,
2013-05-23 23:27:00,52.5,51.1,29.90,North,5,0.0,0.0,95,0.00,,FEW,0.35,VWS V14.01,2013-05-24 06:27:00,
2013-05-23 23:32:00,52.6,51.2,29.89,North,5,0.0,0.0,95,0.00,,FEW,0.35,VWS V14.01,2013-05-24 06:32:00,
2013-05-23 23:37:00,52.5,51.1,29.89,North,5,0.0,0.0,95,0.00,,FEW,0.35,VWS V14.01,2013-05-24 06:37:00,
2013-05-23 23:42:00,52.5,51.1,29.89,North,5,0.0,0.0,95,0.00,,FEW,0.35,VWS V14.01,2013-05-24 06:42:00,
2013-05-23 23:47:00,52.3,50.9,29.89,North,5,0.0,0.0,95,0.00,,FEW,0.35,VWS V14.01,2013-05-24 06:47:00,
2013-05-23 23:52:00,52.2,50.8,29.89,North,5,0.0,0.0,95,0.00,,FEW,0.35,VWS V14.01,2013-05-24 06:52:00,
2013-05-23 23:57:00,52.2,50.8,29.89,North,5,0.0,0.0,95,0.00,,FEW,0.35,VWS V14.01,2013-05-24 06:57:00,